M I D A S
Marine Information and Data Acquisition System
Tripno 1477 of the Zeeleeuw from 2008-02-13 08:18:54 to 2008-02-13 15:43:21
Back to CruiseResearch ActivitiesStationsMapUnderway DataData graphs

EquipmentUnitsComments
TimeDGPSUTC
LatitudeDGPSDM.mWGS84
LongitudeDGPSDM.mWGS84
SpeedMeteo Stationm/sRelative wind speed
DirectionMeteo StationdegRelative wind direction
TemperatureMeteo Stationdeg CelciusAir temperature
PressureMeteo StationPaAtmospheric pressure
HumidityMeteo Station%Relative humidity
Missing or incorrect values are displayed as -999
Metereological data collected by the RV Zeeleeuw from 2008-02-13 08:19:25 to 2008-02-13 15:53:38
                                                                                    Next 1000 lines
Time Latitude Longitude Speed Direction Temperature Pressure Humidity
2008-02-13 08:19:35 51°13.664 2°55.953 -999 -999 -999 -999 -999
2008-02-13 08:19:40 51°13.664 2°55.953 -999 -999 -999 -999 -999
2008-02-13 08:19:45 51°13.664 2°55.953 -999 -999 -999 -999 -999
2008-02-13 08:19:50 51°13.664 2°55.954 -999 -999 -999 -999 -999
2008-02-13 08:19:55 51°13.663 2°55.954 -999 -999 -999 -999 -999
2008-02-13 08:20:00 51°13.663 2°55.954 -999 -999 -999 -999 -999
2008-02-13 08:20:05 51°13.664 2°55.954 -999 -999 -999 -999 -999
2008-02-13 08:20:10 51°13.664 2°55.954 -999 -999 -999 -999 -999
2008-02-13 08:20:15 51°13.664 2°55.955 -999 -999 -999 -999 -999
2008-02-13 08:20:20 51°13.664 2°55.955 -999 -999 -999 -999 -999
2008-02-13 08:20:25 51°13.664 2°55.955 -999 -999 -999 -999 -999
2008-02-13 08:20:30 51°13.664 2°55.955 -999 -999 -999 -999 -999
2008-02-13 08:20:35 51°13.664 2°55.955 -999 -999 -999 -999 -999
2008-02-13 08:20:40 51°13.664 2°55.955 -999 -999 -999 -999 -999
2008-02-13 08:20:45 51°13.663 2°55.955 -999 -999 -999 -999 -999
2008-02-13 08:20:50 51°13.663 2°55.955 -999 -999 -999 -999 -999
2008-02-13 08:20:55 51°13.663 2°55.955 -999 -999 -999 -999 -999
2008-02-13 08:21:00 51°13.663 2°55.955 -999 -999 -999 -999 -999
2008-02-13 08:21:05 51°13.663 2°55.955 -999 -999 -999 -999 -999
2008-02-13 08:21:10 51°13.663 2°55.955 -999 -999 -999 -999 -999
2008-02-13 08:21:15 51°13.663 2°55.955 -999 -999 -999 -999 -999
2008-02-13 08:21:20 51°13.663 2°55.955 -999 -999 -999 -999 -999
2008-02-13 08:21:25 51°13.663 2°55.954 -999 -999 -999 -999 -999
2008-02-13 08:21:30 51°13.663 2°55.954 -999 -999 -999 -999 -999
2008-02-13 08:21:35 51°13.662 2°55.954 -999 -999 -999 -999 -999
2008-02-13 08:21:40 51°13.662 2°55.954 -999 -999 -999 -999 -999
2008-02-13 08:21:45 51°13.662 2°55.954 -999 -999 -999 -999 -999
2008-02-13 08:21:50 51°13.662 2°55.953 -999 -999 -999 -999 -999
2008-02-13 08:21:55 51°13.663 2°55.952 -999 -999 -999 -999 -999
2008-02-13 08:22:00 51°13.663 2°55.951 -999 -999 -999 -999 -999
2008-02-13 08:22:05 51°13.664 2°55.948 -999 -999 -999 -999 -999
2008-02-13 08:22:10 51°13.665 2°55.945 -999 -999 -999 -999 -999
2008-02-13 08:22:15 51°13.666 2°55.941 -999 -999 -999 -999 -999
2008-02-13 08:22:20 51°13.667 2°55.935 -999 -999 -999 -999 -999
2008-02-13 08:22:25 51°13.668 2°55.93 -999 -999 -999 -999 -999
2008-02-13 08:22:30 51°13.67 2°55.923 -999 -999 -999 -999 -999
2008-02-13 08:22:35 51°13.672 2°55.916 -999 -999 -999 -999 -999
2008-02-13 08:22:40 51°13.674 2°55.909 -999 -999 -999 -999 -999
2008-02-13 08:22:45 51°13.675 2°55.901 -999 -999 -999 -999 -999
2008-02-13 08:22:50 51°13.677 2°55.893 -999 -999 -999 -999 -999
2008-02-13 08:22:55 51°13.679 2°55.884 -999 -999 -999 -999 -999
2008-02-13 08:23:00 51°13.681 2°55.876 -999 -999 -999 -999 -999
2008-02-13 08:23:05 51°13.683 2°55.867 -999 -999 -999 -999 -999
2008-02-13 08:23:10 51°13.686 2°55.858 -999 -999 -999 -999 -999
2008-02-13 08:23:15 51°13.688 2°55.848 -999 -999 -999 -999 -999
2008-02-13 08:23:20 51°13.691 2°55.839 -999 -999 -999 -999 -999
2008-02-13 08:23:25 51°13.694 2°55.829 -999 -999 -999 -999 -999
2008-02-13 08:23:30 51°13.698 2°55.819 -999 -999 -999 -999 -999
2008-02-13 08:23:35 51°13.701 2°55.809 -999 -999 -999 -999 -999
2008-02-13 08:23:40 51°13.705 2°55.799 -999 -999 -999 -999 -999
2008-02-13 08:23:45 51°13.709 2°55.789 -999 -999 -999 -999 -999
2008-02-13 08:23:50 51°13.713 2°55.779 -999 -999 -999 -999 -999
2008-02-13 08:23:55 51°13.718 2°55.769 -999 -999 -999 -999 -999
2008-02-13 08:24:00 51°13.723 2°55.759 -999 -999 -999 -999 -999
2008-02-13 08:24:05 51°13.728 2°55.75 -999 -999 -999 -999 -999
2008-02-13 08:24:10 51°13.733 2°55.741 -999 -999 -999 -999 -999
2008-02-13 08:24:15 51°13.739 2°55.732 -999 -999 -999 -999 -999
2008-02-13 08:24:20 51°13.745 2°55.724 -999 -999 -999 -999 -999
2008-02-13 08:24:25 51°13.75 2°55.717 -999 -999 -999 -999 -999
2008-02-13 08:24:30 51°13.757 2°55.71 -999 -999 -999 -999 -999
2008-02-13 08:24:35 51°13.763 2°55.703 -999 -999 -999 -999 -999
2008-02-13 08:24:40 51°13.769 2°55.697 -999 -999 -999 -999 -999
2008-02-13 08:24:45 51°13.776 2°55.691 -999 -999 -999 -999 -999
2008-02-13 08:24:50 51°13.782 2°55.685 -999 -999 -999 -999 -999
2008-02-13 08:24:55 51°13.789 2°55.679 -999 -999 -999 -999 -999
2008-02-13 08:25:00 51°13.796 2°55.674 -999 -999 -999 -999 -999
2008-02-13 08:25:05 51°13.803 2°55.668 -999 -999 -999 -999 -999
2008-02-13 08:25:10 51°13.811 2°55.662 -999 -999 -999 -999 -999
2008-02-13 08:25:15 51°13.818 2°55.657 -999 -999 -999 -999 -999
2008-02-13 08:25:20 51°13.825 2°55.653 -999 -999 -999 -999 -999
2008-02-13 08:25:25 51°13.832 2°55.648 -999 -999 -999 -999 -999
2008-02-13 08:25:30 51°13.839 2°55.645 -999 -999 -999 -999 -999
2008-02-13 08:25:35 51°13.847 2°55.642 -999 -999 -999 -999 -999
2008-02-13 08:25:40 51°13.854 2°55.639 -999 -999 -999 -999 -999
2008-02-13 08:25:45 51°13.861 2°55.637 -999 -999 -999 -999 -999
2008-02-13 08:25:50 51°13.869 2°55.636 -999 -999 -999 -999 -999
2008-02-13 08:25:55 51°13.876 2°55.635 -999 -999 -999 -999 -999
2008-02-13 08:26:00 51°13.884 2°55.635 -999 -999 -999 -999 -999
2008-02-13 08:26:05 51°13.891 2°55.636 -999 -999 -999 -999 -999
2008-02-13 08:26:10 51°13.898 2°55.637 -999 -999 -999 -999 -999
2008-02-13 08:26:15 51°13.905 2°55.638 -999 -999 -999 -999 -999
2008-02-13 08:26:20 51°13.911 2°55.64 -999 -999 -999 -999 -999
2008-02-13 08:26:25 51°13.916 2°55.642 -999 -999 -999 -999 -999
2008-02-13 08:26:30 51°13.922 2°55.644 -999 -999 -999 -999 -999
2008-02-13 08:26:35 51°13.927 2°55.647 -999 -999 -999 -999 -999
2008-02-13 08:26:40 51°13.932 2°55.649 -999 -999 -999 -999 -999
2008-02-13 08:26:45 51°13.936 2°55.652 -999 -999 -999 -999 -999
2008-02-13 08:26:50 51°13.94 2°55.654 -999 -999 -999 -999 -999
2008-02-13 08:26:55 51°13.944 2°55.657 -999 -999 -999 -999 -999
2008-02-13 08:27:00 51°13.948 2°55.659 -999 -999 -999 -999 -999
2008-02-13 08:27:05 51°13.95 2°55.661 -999 -999 -999 -999 -999
2008-02-13 08:27:10 51°13.952 2°55.662 -999 -999 -999 -999 -999
2008-02-13 08:27:15 51°13.954 2°55.664 -999 -999 -999 -999 -999
2008-02-13 08:27:20 51°13.955 2°55.665 -999 -999 -999 -999 -999
2008-02-13 08:27:25 51°13.956 2°55.667 -999 -999 -999 -999 -999
2008-02-13 08:27:30 51°13.957 2°55.667 -999 -999 -999 -999 -999
2008-02-13 08:27:35 51°13.958 2°55.668 -999 -999 -999 -999 -999
2008-02-13 08:27:40 51°13.959 2°55.668 -999 -999 -999 -999 -999
2008-02-13 08:27:45 51°13.959 2°55.666 -999 -999 -999 -999 -999
2008-02-13 08:27:50 51°13.959 2°55.663 -999 -999 -999 -999 -999
2008-02-13 08:27:55 51°13.959 2°55.659 -999 -999 -999 -999 -999
2008-02-13 08:28:00 51°13.959 2°55.654 -999 -999 -999 -999 -999
2008-02-13 08:28:05 51°13.96 2°55.648 -999 -999 -999 -999 -999
2008-02-13 08:28:10 51°13.962 2°55.641 -999 -999 -999 -999 -999
2008-02-13 08:28:15 51°13.963 2°55.634 -999 -999 -999 -999 -999
2008-02-13 08:28:20 51°13.966 2°55.626 -999 -999 -999 -999 -999
2008-02-13 08:28:25 51°13.969 2°55.617 -999 -999 -999 -999 -999
2008-02-13 08:28:30 51°13.973 2°55.608 -999 -999 -999 -999 -999
2008-02-13 08:28:35 51°13.977 2°55.599 -999 -999 -999 -999 -999
2008-02-13 08:28:40 51°13.981 2°55.59 -999 -999 -999 -999 -999
2008-02-13 08:28:45 51°13.986 2°55.581 -999 -999 -999 -999 -999
2008-02-13 08:28:50 51°13.991 2°55.572 -999 -999 -999 -999 -999
2008-02-13 08:28:55 51°13.996 2°55.563 -999 -999 -999 -999 -999
2008-02-13 08:29:00 51°14.001 2°55.554 -999 -999 -999 -999 -999
2008-02-13 08:29:05 51°14.006 2°55.545 -999 -999 -999 -999 -999
2008-02-13 08:29:10 51°14.012 2°55.537 -999 -999 -999 -999 -999
2008-02-13 08:29:15 51°14.017 2°55.529 -999 -999 -999 -999 -999
2008-02-13 08:29:20 51°14.022 2°55.521 -999 -999 -999 -999 -999
2008-02-13 08:29:25 51°14.028 2°55.514 -999 -999 -999 -999 -999
2008-02-13 08:29:30 51°14.034 2°55.507 -999 -999 -999 -999 -999
2008-02-13 08:29:35 51°14.039 2°55.5 -999 -999 -999 -999 -999
2008-02-13 08:29:40 51°14.045 2°55.494 -999 -999 -999 -999 -999
2008-02-13 08:29:45 51°14.05 2°55.488 -999 -999 -999 -999 -999
2008-02-13 08:29:50 51°14.056 2°55.482 -999 -999 -999 -999 -999
2008-02-13 08:29:55 51°14.061 2°55.477 -999 -999 -999 -999 -999
2008-02-13 08:30:00 51°14.067 2°55.471 -999 -999 -999 -999 -999
2008-02-13 08:30:05 51°14.072 2°55.466 -999 -999 -999 -999 -999
2008-02-13 08:30:10 51°14.078 2°55.461 -999 -999 -999 -999 -999
2008-02-13 08:30:15 51°14.083 2°55.456 -999 -999 -999 -999 -999
2008-02-13 08:30:20 51°14.089 2°55.451 -999 -999 -999 -999 -999
2008-02-13 08:30:25 51°14.094 2°55.446 -999 -999 -999 -999 -999
2008-02-13 08:30:30 51°14.1 2°55.442 -999 -999 -999 -999 -999
2008-02-13 08:30:35 51°14.105 2°55.437 -999 -999 -999 -999 -999
2008-02-13 08:30:40 51°14.11 2°55.433 -999 -999 -999 -999 -999
2008-02-13 08:30:45 51°14.116 2°55.428 -999 -999 -999 -999 -999
2008-02-13 08:30:50 51°14.121 2°55.424 -999 -999 -999 -999 -999
2008-02-13 08:30:55 51°14.126 2°55.419 -999 -999 -999 -999 -999
2008-02-13 08:31:00 51°14.131 2°55.415 -999 -999 -999 -999 -999
2008-02-13 08:31:05 51°14.136 2°55.41 -999 -999 -999 -999 -999
2008-02-13 08:31:10 51°14.142 2°55.405 -999 -999 -999 -999 -999
2008-02-13 08:31:15 51°14.147 2°55.4 -999 -999 -999 -999 -999
2008-02-13 08:31:20 51°14.153 2°55.395 -999 -999 -999 -999 -999
2008-02-13 08:31:25 51°14.158 2°55.39 -999 -999 -999 -999 -999
2008-02-13 08:31:30 51°14.163 2°55.384 -999 -999 -999 -999 -999
2008-02-13 08:31:35 51°14.169 2°55.379 -999 -999 -999 -999 -999
2008-02-13 08:31:40 51°14.174 2°55.373 -999 -999 -999 -999 -999
2008-02-13 08:31:45 51°14.179 2°55.367 -999 -999 -999 -999 -999
2008-02-13 08:31:50 51°14.184 2°55.36 -999 -999 -999 -999 -999
2008-02-13 08:31:55 51°14.19 2°55.354 -999 -999 -999 -999 -999
2008-02-13 08:32:00 51°14.195 2°55.347 -999 -999 -999 -999 -999
2008-02-13 08:32:05 51°14.2 2°55.341 -999 -999 -999 -999 -999
2008-02-13 08:32:10 51°14.205 2°55.334 -999 -999 -999 -999 -999
2008-02-13 08:32:15 51°14.21 2°55.326 -999 -999 -999 -999 -999
2008-02-13 08:32:20 51°14.215 2°55.319 -999 -999 -999 -999 -999
2008-02-13 08:32:25 51°14.22 2°55.312 -999 -999 -999 -999 -999
2008-02-13 08:32:30 51°14.226 2°55.304 -999 -999 -999 -999 -999
2008-02-13 08:32:35 51°14.231 2°55.296 -999 -999 -999 -999 -999
2008-02-13 08:32:40 51°14.236 2°55.288 -999 -999 -999 -999 -999
2008-02-13 08:32:45 51°14.242 2°55.28 -999 -999 -999 -999 -999
2008-02-13 08:32:50 51°14.248 2°55.271 -999 -999 -999 -999 -999
2008-02-13 08:32:55 51°14.254 2°55.261 -999 -999 -999 -999 -999
2008-02-13 08:33:00 51°14.26 2°55.251 -999 -999 -999 -999 -999
2008-02-13 08:33:05 51°14.267 2°55.241 -999 -999 -999 -999 -999
2008-02-13 08:33:10 51°14.273 2°55.23 -999 -999 -999 -999 -999
2008-02-13 08:33:15 51°14.279 2°55.219 -999 -999 -999 -999 -999
2008-02-13 08:33:20 51°14.285 2°55.207 -999 -999 -999 -999 -999
2008-02-13 08:33:25 51°14.292 2°55.195 -999 -999 -999 -999 -999
2008-02-13 08:33:30 51°14.298 2°55.183 -999 -999 -999 -999 -999
2008-02-13 08:33:35 51°14.304 2°55.17 -999 -999 -999 -999 -999
2008-02-13 08:33:40 51°14.31 2°55.157 -999 -999 -999 -999 -999
2008-02-13 08:33:45 51°14.316 2°55.144 -999 -999 -999 -999 -999
2008-02-13 08:33:50 51°14.322 2°55.131 -999 -999 -999 -999 -999
2008-02-13 08:33:55 51°14.328 2°55.118 -999 -999 -999 -999 -999
2008-02-13 08:34:00 51°14.333 2°55.104 -999 -999 -999 -999 -999
2008-02-13 08:34:05 51°14.339 2°55.09 -999 -999 -999 -999 -999
2008-02-13 08:34:10 51°14.345 2°55.076 -999 -999 -999 -999 -999
2008-02-13 08:34:15 51°14.351 2°55.061 -999 -999 -999 -999 -999
2008-02-13 08:34:20 51°14.357 2°55.045 -999 -999 -999 -999 -999
2008-02-13 08:34:25 51°14.362 2°55.028 -999 -999 -999 -999 -999
2008-02-13 08:34:30 51°14.368 2°55.011 -999 -999 -999 -999 -999
2008-02-13 08:34:35 51°14.375 2°54.994 -999 -999 -999 -999 -999
2008-02-13 08:34:40 51°14.381 2°54.977 -999 -999 -999 -999 -999
2008-02-13 08:34:45 51°14.388 2°54.959 -999 -999 -999 -999 -999
2008-02-13 08:34:50 51°14.395 2°54.941 -999 -999 -999 -999 -999
2008-02-13 08:34:55 51°14.403 2°54.922 -999 -999 -999 -999 -999
2008-02-13 08:35:00 51°14.41 2°54.903 -999 -999 -999 -999 -999
2008-02-13 08:35:05 51°14.419 2°54.884 -999 -999 -999 -999 -999
2008-02-13 08:35:10 51°14.428 2°54.866 -999 -999 -999 -999 -999
2008-02-13 08:35:15 51°14.437 2°54.847 -999 -999 -999 -999 -999
2008-02-13 08:35:20 51°14.447 2°54.829 -999 -999 -999 -999 -999
2008-02-13 08:35:25 51°14.458 2°54.81 -999 -999 -999 -999 -999
2008-02-13 08:35:30 51°14.469 2°54.792 -999 -999 -999 -999 -999
2008-02-13 08:35:35 51°14.48 2°54.774 -999 -999 -999 -999 -999
2008-02-13 08:35:40 51°14.492 2°54.756 -999 -999 -999 -999 -999
2008-02-13 08:35:45 51°14.505 2°54.739 -999 -999 -999 -999 -999
2008-02-13 08:35:50 51°14.518 2°54.723 -999 -999 -999 -999 -999
2008-02-13 08:35:55 51°14.532 2°54.709 -999 -999 -999 -999 -999
2008-02-13 08:36:00 51°14.547 2°54.695 -999 -999 -999 -999 -999
2008-02-13 08:36:05 51°14.561 2°54.681 -999 -999 -999 -999 -999
2008-02-13 08:36:10 51°14.576 2°54.667 -999 -999 -999 -999 -999
2008-02-13 08:36:15 51°14.591 2°54.653 -999 -999 -999 -999 -999
2008-02-13 08:36:20 51°14.606 2°54.64 -999 -999 -999 -999 -999
2008-02-13 08:36:25 51°14.621 2°54.627 -999 -999 -999 -999 -999
2008-02-13 08:36:30 51°14.636 2°54.613 -999 -999 -999 -999 -999
2008-02-13 08:36:35 51°14.652 2°54.6 -999 -999 -999 -999 -999
2008-02-13 08:36:40 51°14.667 2°54.587 -999 -999 -999 -999 -999
2008-02-13 08:36:45 51°14.682 2°54.574 -999 -999 -999 -999 -999
2008-02-13 08:36:50 51°14.697 2°54.56 -999 -999 -999 -999 -999
2008-02-13 08:36:55 51°14.713 2°54.547 -999 -999 -999 -999 -999
2008-02-13 08:37:00 51°14.728 2°54.534 -999 -999 -999 -999 -999
2008-02-13 08:37:05 51°14.744 2°54.52 -999 -999 -999 -999 -999
2008-02-13 08:37:10 51°14.759 2°54.507 -999 -999 -999 -999 -999
2008-02-13 08:37:15 51°14.775 2°54.494 -999 -999 -999 -999 -999
2008-02-13 08:37:20 51°14.79 2°54.481 -999 -999 -999 -999 -999
2008-02-13 08:37:25 51°14.805 2°54.468 -999 -999 -999 -999 -999
2008-02-13 08:37:30 51°14.821 2°54.455 -999 -999 -999 -999 -999
2008-02-13 08:37:35 51°14.837 2°54.442 -999 -999 -999 -999 -999
2008-02-13 08:37:40 51°14.852 2°54.429 -999 -999 -999 -999 -999
2008-02-13 08:37:45 51°14.867 2°54.415 -999 -999 -999 -999 -999
2008-02-13 08:37:50 51°14.883 2°54.402 -999 -999 -999 -999 -999
2008-02-13 08:37:55 51°14.898 2°54.389 -999 -999 -999 -999 -999
2008-02-13 08:38:00 51°14.913 2°54.376 -999 -999 -999 -999 -999
2008-02-13 08:38:05 51°14.929 2°54.363 -999 -999 -999 -999 -999
2008-02-13 08:38:10 51°14.944 2°54.35 -999 -999 -999 -999 -999
2008-02-13 08:38:15 51°14.959 2°54.337 -999 -999 -999 -999 -999
2008-02-13 08:38:20 51°14.974 2°54.324 -999 -999 -999 -999 -999
2008-02-13 08:38:25 51°14.99 2°54.311 -999 -999 -999 -999 -999
2008-02-13 08:38:30 51°15.005 2°54.299 -999 -999 -999 -999 -999
2008-02-13 08:38:35 51°15.02 2°54.285 -999 -999 -999 -999 -999
2008-02-13 08:38:40 51°15.035 2°54.272 -999 -999 -999 -999 -999
2008-02-13 08:38:45 51°15.05 2°54.258 -999 -999 -999 -999 -999
2008-02-13 08:38:50 51°15.065 2°54.244 -999 -999 -999 -999 -999
2008-02-13 08:38:55 51°15.08 2°54.23 -999 -999 -999 -999 -999
2008-02-13 08:39:00 51°15.094 2°54.214 -999 -999 -999 -999 -999
2008-02-13 08:39:05 51°15.109 2°54.2 -999 -999 -999 -999 -999
2008-02-13 08:39:10 51°15.124 2°54.185 -999 -999 -999 -999 -999
2008-02-13 08:39:15 51°15.139 2°54.17 -999 -999 -999 -999 -999
2008-02-13 08:39:20 51°15.153 2°54.154 -999 -999 -999 -999 -999
2008-02-13 08:39:25 51°15.168 2°54.139 -999 -999 -999 -999 -999
2008-02-13 08:39:30 51°15.183 2°54.123 -999 -999 -999 -999 -999
2008-02-13 08:39:35 51°15.197 2°54.107 -999 -999 -999 -999 -999
2008-02-13 08:39:40 51°15.212 2°54.091 -999 -999 -999 -999 -999
2008-02-13 08:39:45 51°15.227 2°54.075 -999 -999 -999 -999 -999
2008-02-13 08:39:50 51°15.241 2°54.06 -999 -999 -999 -999 -999
2008-02-13 08:39:55 51°15.256 2°54.045 -999 -999 -999 -999 -999
2008-02-13 08:40:00 51°15.272 2°54.03 -999 -999 -999 -999 -999
2008-02-13 08:40:05 51°15.286 2°54.015 -999 -999 -999 -999 -999
2008-02-13 08:40:10 51°15.302 2°54.002 -999 -999 -999 -999 -999
2008-02-13 08:40:15 51°15.317 2°53.988 -999 -999 -999 -999 -999
2008-02-13 08:40:20 51°15.333 2°53.974 -999 -999 -999 -999 -999
2008-02-13 08:40:25 51°15.348 2°53.961 -999 -999 -999 -999 -999
2008-02-13 08:40:30 51°15.364 2°53.948 -999 -999 -999 -999 -999
2008-02-13 08:40:35 51°15.379 2°53.934 -999 -999 -999 -999 -999
2008-02-13 08:40:40 51°15.395 2°53.922 -999 -999 -999 -999 -999
2008-02-13 08:40:45 51°15.411 2°53.908 -999 -999 -999 -999 -999
2008-02-13 08:40:50 51°15.426 2°53.895 -999 -999 -999 -999 -999
2008-02-13 08:40:55 51°15.441 2°53.881 -999 -999 -999 -999 -999
2008-02-13 08:41:00 51°15.457 2°53.867 -999 -999 -999 -999 -999
2008-02-13 08:41:05 51°15.472 2°53.853 -999 -999 -999 -999 -999
2008-02-13 08:41:10 51°15.488 2°53.838 -999 -999 -999 -999 -999
2008-02-13 08:41:15 51°15.503 2°53.824 -999 -999 -999 -999 -999
2008-02-13 08:41:20 51°15.518 2°53.809 -999 -999 -999 -999 -999
2008-02-13 08:41:25 51°15.533 2°53.795 -999 -999 -999 -999 -999
2008-02-13 08:41:30 51°15.548 2°53.78 -999 -999 -999 -999 -999
2008-02-13 08:41:35 51°15.564 2°53.766 -999 -999 -999 -999 -999
2008-02-13 08:41:40 51°15.579 2°53.751 -999 -999 -999 -999 -999
2008-02-13 08:41:45 51°15.594 2°53.737 -999 -999 -999 -999 -999
2008-02-13 08:41:50 51°15.61 2°53.723 -999 -999 -999 -999 -999
2008-02-13 08:41:55 51°15.625 2°53.709 -999 -999 -999 -999 -999
2008-02-13 08:42:00 51°15.64 2°53.695 -999 -999 -999 -999 -999
2008-02-13 08:42:05 51°15.656 2°53.681 -999 -999 -999 -999 -999
2008-02-13 08:42:10 51°15.671 2°53.667 -999 -999 -999 -999 -999
2008-02-13 08:42:15 51°15.686 2°53.653 -999 -999 -999 -999 -999
2008-02-13 08:42:20 51°15.702 2°53.639 -999 -999 -999 -999 -999
2008-02-13 08:42:25 51°15.717 2°53.624 -999 -999 -999 -999 -999
2008-02-13 08:42:30 51°15.732 2°53.61 -999 -999 -999 -999 -999
2008-02-13 08:42:35 51°15.747 2°53.596 -999 -999 -999 -999 -999
2008-02-13 08:42:40 51°15.762 2°53.582 -999 -999 -999 -999 -999
2008-02-13 08:42:45 51°15.778 2°53.568 -999 -999 -999 -999 -999
2008-02-13 08:42:50 51°15.793 2°53.554 -999 -999 -999 -999 -999
2008-02-13 08:42:55 51°15.808 2°53.54 -999 -999 -999 -999 -999
2008-02-13 08:43:00 51°15.824 2°53.526 -999 -999 -999 -999 -999
2008-02-13 08:43:05 51°15.839 2°53.513 -999 -999 -999 -999 -999
2008-02-13 08:43:10 51°15.855 2°53.499 -999 -999 -999 -999 -999
2008-02-13 08:43:15 51°15.87 2°53.486 -999 -999 -999 -999 -999
2008-02-13 08:43:20 51°15.886 2°53.472 -999 -999 -999 -999 -999
2008-02-13 08:43:25 51°15.902 2°53.459 -999 -999 -999 -999 -999
2008-02-13 08:43:30 51°15.917 2°53.445 -999 -999 -999 -999 -999
2008-02-13 08:43:35 51°15.932 2°53.431 -999 -999 -999 -999 -999
2008-02-13 08:43:40 51°15.948 2°53.417 -999 -999 -999 -999 -999
2008-02-13 08:43:45 51°15.963 2°53.402 -999 -999 -999 -999 -999
2008-02-13 08:43:50 51°15.978 2°53.388 -999 -999 -999 -999 -999
2008-02-13 08:43:55 51°15.994 2°53.374 -999 -999 -999 -999 -999
2008-02-13 08:44:00 51°16.009 2°53.359 -999 -999 -999 -999 -999
2008-02-13 08:44:05 51°16.025 2°53.346 -999 -999 -999 -999 -999
2008-02-13 08:44:10 51°16.04 2°53.332 -999 -999 -999 -999 -999
2008-02-13 08:44:15 51°16.056 2°53.32 -999 -999 -999 -999 -999
2008-02-13 08:44:20 51°16.072 2°53.307 -999 -999 -999 -999 -999
2008-02-13 08:44:25 51°16.088 2°53.296 -999 -999 -999 -999 -999
2008-02-13 08:44:30 51°16.104 2°53.284 -999 -999 -999 -999 -999
2008-02-13 08:44:35 51°16.12 2°53.273 -999 -999 -999 -999 -999
2008-02-13 08:44:40 51°16.137 2°53.261 -999 -999 -999 -999 -999
2008-02-13 08:44:45 51°16.153 2°53.25 -999 -999 -999 -999 -999
2008-02-13 08:44:50 51°16.169 2°53.239 -999 -999 -999 -999 -999
2008-02-13 08:44:55 51°16.185 2°53.228 -999 -999 -999 -999 -999
2008-02-13 08:45:00 51°16.202 2°53.216 -999 -999 -999 -999 -999
2008-02-13 08:45:05 51°16.218 2°53.205 -999 -999 -999 -999 -999
2008-02-13 08:45:10 51°16.234 2°53.194 -999 -999 -999 -999 -999
2008-02-13 08:45:15 51°16.25 2°53.182 -999 -999 -999 -999 -999
2008-02-13 08:45:20 51°16.266 2°53.171 -999 -999 -999 -999 -999
2008-02-13 08:45:25 51°16.282 2°53.159 -999 -999 -999 -999 -999
2008-02-13 08:45:30 51°16.299 2°53.147 -999 -999 -999 -999 -999
2008-02-13 08:45:35 51°16.314 2°53.135 -999 -999 -999 -999 -999
2008-02-13 08:45:40 51°16.331 2°53.123 -999 -999 -999 -999 -999
2008-02-13 08:45:45 51°16.347 2°53.111 -999 -999 -999 -999 -999
2008-02-13 08:45:50 51°16.362 2°53.099 -999 -999 -999 -999 -999
2008-02-13 08:45:55 51°16.379 2°53.087 -999 -999 -999 -999 -999
2008-02-13 08:46:00 51°16.395 2°53.075 -999 -999 -999 -999 -999
2008-02-13 08:46:05 51°16.411 2°53.064 -999 -999 -999 -999 -999
2008-02-13 08:46:10 51°16.427 2°53.051 -999 -999 -999 -999 -999
2008-02-13 08:46:15 51°16.443 2°53.039 -999 -999 -999 -999 -999
2008-02-13 08:46:20 51°16.459 2°53.027 -999 -999 -999 -999 -999
2008-02-13 08:46:25 51°16.475 2°53.016 -999 -999 -999 -999 -999
2008-02-13 08:46:30 51°16.491 2°53.004 -999 -999 -999 -999 -999
2008-02-13 08:46:35 51°16.507 2°52.992 -999 -999 -999 -999 -999
2008-02-13 08:46:40 51°16.523 2°52.981 -999 -999 -999 -999 -999
2008-02-13 08:46:45 51°16.539 2°52.97 -999 -999 -999 -999 -999
2008-02-13 08:46:50 51°16.556 2°52.959 -999 -999 -999 -999 -999
2008-02-13 08:46:55 51°16.572 2°52.948 -999 -999 -999 -999 -999
2008-02-13 08:47:00 51°16.588 2°52.937 -999 -999 -999 -999 -999
2008-02-13 08:47:05 51°16.604 2°52.925 -999 -999 -999 -999 -999
2008-02-13 08:47:10 51°16.62 2°52.914 -999 -999 -999 -999 -999
2008-02-13 08:47:15 51°16.636 2°52.902 -999 -999 -999 -999 -999
2008-02-13 08:47:20 51°16.652 2°52.89 -999 -999 -999 -999 -999
2008-02-13 08:47:25 51°16.668 2°52.878 -999 -999 -999 -999 -999
2008-02-13 08:47:30 51°16.684 2°52.866 -999 -999 -999 -999 -999
2008-02-13 08:47:35 51°16.7 2°52.854 -999 -999 -999 -999 -999
2008-02-13 08:47:40 51°16.716 2°52.842 -999 -999 -999 -999 -999
2008-02-13 08:47:45 51°16.732 2°52.831 -999 -999 -999 -999 -999
2008-02-13 08:47:50 51°16.748 2°52.82 -999 -999 -999 -999 -999
2008-02-13 08:47:55 51°16.764 2°52.809 -999 -999 -999 -999 -999
2008-02-13 08:48:00 51°16.78 2°52.799 -999 -999 -999 -999 -999
2008-02-13 08:48:05 51°16.796 2°52.788 -999 -999 -999 -999 -999
2008-02-13 08:48:10 51°16.812 2°52.777 -999 -999 -999 -999 -999
2008-02-13 08:48:15 51°16.829 2°52.766 -999 -999 -999 -999 -999
2008-02-13 08:48:20 51°16.845 2°52.756 -999 -999 -999 -999 -999
2008-02-13 08:48:25 51°16.861 2°52.745 -999 -999 -999 -999 -999
2008-02-13 08:48:30 51°16.877 2°52.734 -999 -999 -999 -999 -999
2008-02-13 08:48:35 51°16.893 2°52.724 -999 -999 -999 -999 -999
2008-02-13 08:48:40 51°16.909 2°52.713 -999 -999 -999 -999 -999
2008-02-13 08:48:45 51°16.925 2°52.702 -999 -999 -999 -999 -999
2008-02-13 08:48:50 51°16.942 2°52.691 -999 -999 -999 -999 -999
2008-02-13 08:48:55 51°16.958 2°52.68 -999 -999 -999 -999 -999
2008-02-13 08:49:00 51°16.974 2°52.67 -999 -999 -999 -999 -999
2008-02-13 08:49:05 51°16.991 2°52.659 -999 -999 -999 -999 -999
2008-02-13 08:49:10 51°17.007 2°52.648 -999 -999 -999 -999 -999
2008-02-13 08:49:15 51°17.024 2°52.64 -999 -999 -999 -999 -999
2008-02-13 08:49:20 51°17.041 2°52.63 -999 -999 -999 -999 -999
2008-02-13 08:49:25 51°17.058 2°52.622 -999 -999 -999 -999 -999
2008-02-13 08:49:30 51°17.075 2°52.613 -999 -999 -999 -999 -999
2008-02-13 08:49:35 51°17.091 2°52.606 -999 -999 -999 -999 -999
2008-02-13 08:49:40 51°17.108 2°52.597 -999 -999 -999 -999 -999
2008-02-13 08:49:45 51°17.125 2°52.59 -999 -999 -999 -999 -999
2008-02-13 08:49:50 51°17.142 2°52.582 -999 -999 -999 -999 -999
2008-02-13 08:49:55 51°17.159 2°52.574 -999 -999 -999 -999 -999
2008-02-13 08:50:00 51°17.175 2°52.566 -999 -999 -999 -999 -999
2008-02-13 08:50:05 51°17.192 2°52.557 -999 -999 -999 -999 -999
2008-02-13 08:50:10 51°17.209 2°52.549 -999 -999 -999 -999 -999
2008-02-13 08:50:15 51°17.226 2°52.541 -999 -999 -999 -999 -999
2008-02-13 08:50:20 51°17.243 2°52.532 -999 -999 -999 -999 -999
2008-02-13 08:50:25 51°17.26 2°52.524 -999 -999 -999 -999 -999
2008-02-13 08:50:30 51°17.277 2°52.514 -999 -999 -999 -999 -999
2008-02-13 08:50:35 51°17.293 2°52.505 -999 -999 -999 -999 -999
2008-02-13 08:50:40 51°17.31 2°52.496 -999 -999 -999 -999 -999
2008-02-13 08:50:45 51°17.327 2°52.49 -999 -999 -999 -999 -999
2008-02-13 08:50:50 51°17.344 2°52.482 -999 -999 -999 -999 -999
2008-02-13 08:50:55 51°17.361 2°52.478 -999 -999 -999 -999 -999
2008-02-13 08:51:00 51°17.379 2°52.472 -999 -999 -999 -999 -999
2008-02-13 08:51:05 51°17.396 2°52.468 -999 -999 -999 -999 -999
2008-02-13 08:51:10 51°17.413 2°52.464 -999 -999 -999 -999 -999
2008-02-13 08:51:15 51°17.431 2°52.461 -999 -999 -999 -999 -999
2008-02-13 08:51:20 51°17.448 2°52.458 -999 -999 -999 -999 -999
2008-02-13 08:51:25 51°17.466 2°52.455 -999 -999 -999 -999 -999
2008-02-13 08:51:30 51°17.483 2°52.452 -999 -999 -999 -999 -999
2008-02-13 08:51:35 51°17.501 2°52.449 -999 -999 -999 -999 -999
2008-02-13 08:51:40 51°17.518 2°52.446 -999 -999 -999 -999 -999
2008-02-13 08:51:45 51°17.536 2°52.443 -999 -999 -999 -999 -999
2008-02-13 08:51:50 51°17.553 2°52.439 -999 -999 -999 -999 -999
2008-02-13 08:51:55 51°17.571 2°52.437 -999 -999 -999 -999 -999
2008-02-13 08:52:00 51°17.588 2°52.434 -999 -999 -999 -999 -999
2008-02-13 08:52:05 51°17.606 2°52.433 -999 -999 -999 -999 -999
2008-02-13 08:52:10 51°17.623 2°52.43 -999 -999 -999 -999 -999
2008-02-13 08:52:15 51°17.641 2°52.429 -999 -999 -999 -999 -999
2008-02-13 08:52:20 51°17.658 2°52.427 -999 -999 -999 -999 -999
2008-02-13 08:52:25 51°17.676 2°52.427 -999 -999 -999 -999 -999
2008-02-13 08:52:30 51°17.693 2°52.425 -999 -999 -999 -999 -999
2008-02-13 08:52:35 51°17.71 2°52.424 -999 -999 -999 -999 -999
2008-02-13 08:52:40 51°17.728 2°52.422 -999 -999 -999 -999 -999
2008-02-13 08:52:45 51°17.745 2°52.421 -999 -999 -999 -999 -999
2008-02-13 08:52:50 51°17.762 2°52.42 -999 -999 -999 -999 -999
2008-02-13 08:52:55 51°17.78 2°52.419 -999 -999 -999 -999 -999
2008-02-13 08:53:00 51°17.797 2°52.42 -999 -999 -999 -999 -999
2008-02-13 08:53:05 51°17.814 2°52.423 -999 -999 -999 -999 -999
2008-02-13 08:53:10 51°17.831 2°52.425 -999 -999 -999 -999 -999
2008-02-13 08:53:15 51°17.848 2°52.43 -999 -999 -999 -999 -999
2008-02-13 08:53:20 51°17.865 2°52.432 -999 -999 -999 -999 -999
2008-02-13 08:53:25 51°17.882 2°52.437 -999 -999 -999 -999 -999
2008-02-13 08:53:30 51°17.899 2°52.442 -999 -999 -999 -999 -999
2008-02-13 08:53:35 51°17.915 2°52.447 -999 -999 -999 -999 -999
2008-02-13 08:53:40 51°17.931 2°52.456 -999 -999 -999 -999 -999
2008-02-13 08:53:45 51°17.946 2°52.467 -999 -999 -999 -999 -999
2008-02-13 08:53:50 51°17.962 2°52.477 -999 -999 -999 -999 -999
2008-02-13 08:53:55 51°17.977 2°52.49 -999 -999 -999 -999 -999
2008-02-13 08:54:00 51°17.992 2°52.501 -999 -999 -999 -999 -999
2008-02-13 08:54:05 51°18.007 2°52.514 -999 -999 -999 -999 -999
2008-02-13 08:54:10 51°18.021 2°52.526 -999 -999 -999 -999 -999
2008-02-13 08:54:15 51°18.036 2°52.54 -999 -999 -999 -999 -999
2008-02-13 08:54:20 51°18.049 2°52.556 -999 -999 -999 -999 -999
2008-02-13 08:54:25 51°18.061 2°52.573 -999 -999 -999 -999 -999
2008-02-13 08:54:30 51°18.074 2°52.589 -999 -999 -999 -999 -999
2008-02-13 08:54:35 51°18.087 2°52.607 -999 -999 -999 -999 -999
2008-02-13 08:54:40 51°18.099 2°52.624 -999 -999 -999 -999 -999
2008-02-13 08:54:45 51°18.111 2°52.642 -999 -999 -999 -999 -999
2008-02-13 08:54:50 51°18.123 2°52.66 -999 -999 -999 -999 -999
2008-02-13 08:54:55 51°18.136 2°52.678 -999 -999 -999 -999 -999
2008-02-13 08:55:00 51°18.148 2°52.696 -999 -999 -999 -999 -999
2008-02-13 08:55:05 51°18.16 2°52.714 -999 -999 -999 -999 -999
2008-02-13 08:55:10 51°18.172 2°52.732 -999 -999 -999 -999 -999
2008-02-13 08:55:15 51°18.184 2°52.749 -999 -999 -999 -999 -999
2008-02-13 08:55:20 51°18.197 2°52.767 -999 -999 -999 -999 -999
2008-02-13 08:55:25 51°18.21 2°52.784 -999 -999 -999 -999 -999
2008-02-13 08:55:30 51°18.222 2°52.801 -999 -999 -999 -999 -999
2008-02-13 08:55:35 51°18.235 2°52.818 -999 -999 -999 -999 -999
2008-02-13 08:55:40 51°18.248 2°52.835 -999 -999 -999 -999 -999
2008-02-13 08:55:45 51°18.26 2°52.852 -999 -999 -999 -999 -999
2008-02-13 08:55:50 51°18.273 2°52.869 -999 -999 -999 -999 -999
2008-02-13 08:55:55 51°18.286 2°52.886 -999 -999 -999 -999 -999
2008-02-13 08:56:00 51°18.299 2°52.903 -999 -999 -999 -999 -999
2008-02-13 08:56:05 51°18.311 2°52.92 -999 -999 -999 -999 -999
2008-02-13 08:56:10 51°18.324 2°52.937 -999 -999 -999 -999 -999
2008-02-13 08:56:15 51°18.337 2°52.955 -999 -999 -999 -999 -999
2008-02-13 08:56:20 51°18.349 2°52.972 -999 -999 -999 -999 -999
2008-02-13 08:56:25 51°18.362 2°52.989 -999 -999 -999 -999 -999
2008-02-13 08:56:30 51°18.374 2°53.007 -999 -999 -999 -999 -999
2008-02-13 08:56:35 51°18.386 2°53.025 -999 -999 -999 -999 -999
2008-02-13 08:56:40 51°18.399 2°53.042 -999 -999 -999 -999 -999
2008-02-13 08:56:45 51°18.411 2°53.059 -999 -999 -999 -999 -999
2008-02-13 08:56:50 51°18.424 2°53.077 -999 -999 -999 -999 -999
2008-02-13 08:56:55 51°18.437 2°53.094 -999 -999 -999 -999 -999
2008-02-13 08:57:00 51°18.449 2°53.111 -999 -999 -999 -999 -999
2008-02-13 08:57:05 51°18.462 2°53.127 -999 -999 -999 -999 -999
2008-02-13 08:57:10 51°18.475 2°53.144 -999 -999 -999 -999 -999
2008-02-13 08:57:15 51°18.488 2°53.162 -999 -999 -999 -999 -999
2008-02-13 08:57:20 51°18.501 2°53.178 -999 -999 -999 -999 -999
2008-02-13 08:57:25 51°18.513 2°53.195 -999 -999 -999 -999 -999
2008-02-13 08:57:30 51°18.526 2°53.213 -999 -999 -999 -999 -999
2008-02-13 08:57:35 51°18.539 2°53.229 -999 -999 -999 -999 -999
2008-02-13 08:57:40 51°18.551 2°53.246 -999 -999 -999 -999 -999
2008-02-13 08:57:45 51°18.564 2°53.263 -999 -999 -999 -999 -999
2008-02-13 08:57:50 51°18.577 2°53.28 -999 -999 -999 -999 -999
2008-02-13 08:57:55 51°18.589 2°53.297 -999 -999 -999 -999 -999
2008-02-13 08:58:00 51°18.602 2°53.313 -999 -999 -999 -999 -999
2008-02-13 08:58:05 51°18.615 2°53.33 -999 -999 -999 -999 -999
2008-02-13 08:58:10 51°18.628 2°53.347 -999 -999 -999 -999 -999
2008-02-13 08:58:15 51°18.641 2°53.363 -999 -999 -999 -999 -999
2008-02-13 08:58:20 51°18.654 2°53.38 -999 -999 -999 -999 -999
2008-02-13 08:58:25 51°18.666 2°53.397 -999 -999 -999 -999 -999
2008-02-13 08:58:30 51°18.679 2°53.413 -999 -999 -999 -999 -999
2008-02-13 08:58:35 51°18.692 2°53.43 -999 -999 -999 -999 -999
2008-02-13 08:58:40 51°18.704 2°53.447 -999 -999 -999 -999 -999
2008-02-13 08:58:45 51°18.717 2°53.464 -999 -999 -999 -999 -999
2008-02-13 08:58:50 51°18.73 2°53.481 -999 -999 -999 -999 -999
2008-02-13 08:58:55 51°18.742 2°53.498 -999 -999 -999 -999 -999
2008-02-13 08:59:00 51°18.755 2°53.516 -999 -999 -999 -999 -999
2008-02-13 08:59:05 51°18.767 2°53.533 -999 -999 -999 -999 -999
2008-02-13 08:59:10 51°18.779 2°53.55 -999 -999 -999 -999 -999
2008-02-13 08:59:15 51°18.792 2°53.567 -999 -999 -999 -999 -999
2008-02-13 08:59:20 51°18.804 2°53.584 -999 -999 -999 -999 -999
2008-02-13 08:59:25 51°18.817 2°53.601 -999 -999 -999 -999 -999
2008-02-13 08:59:30 51°18.83 2°53.617 -999 -999 -999 -999 -999
2008-02-13 08:59:35 51°18.843 2°53.634 -999 -999 -999 -999 -999
2008-02-13 08:59:40 51°18.856 2°53.65 -999 -999 -999 -999 -999
2008-02-13 08:59:45 51°18.869 2°53.666 -999 -999 -999 -999 -999
2008-02-13 08:59:50 51°18.882 2°53.682 -999 -999 -999 -999 -999
2008-02-13 08:59:55 51°18.896 2°53.695 -999 -999 -999 -999 -999
2008-02-13 09:00:00 51°18.911 2°53.707 -999 -999 -999 -999 -999
2008-02-13 09:00:05 51°18.925 2°53.72 -999 -999 -999 -999 -999
2008-02-13 09:00:10 51°18.94 2°53.731 -999 -999 -999 -999 -999
2008-02-13 09:00:15 51°18.955 2°53.744 -999 -999 -999 -999 -999
2008-02-13 09:00:20 51°18.97 2°53.755 -999 -999 -999 -999 -999
2008-02-13 09:00:25 51°18.985 2°53.766 -999 -999 -999 -999 -999
2008-02-13 09:00:30 51°19 2°53.777 -999 -999 -999 -999 -999
2008-02-13 09:00:35 51°19.015 2°53.788 -999 -999 -999 -999 -999
2008-02-13 09:00:40 51°19.03 2°53.799 -999 -999 -999 -999 -999
2008-02-13 09:00:45 51°19.046 2°53.811 -999 -999 -999 -999 -999
2008-02-13 09:00:50 51°19.061 2°53.822 -999 -999 -999 -999 -999
2008-02-13 09:00:55 51°19.076 2°53.833 -999 -999 -999 -999 -999
2008-02-13 09:01:00 51°19.091 2°53.844 -999 -999 -999 -999 -999
2008-02-13 09:01:05 51°19.106 2°53.855 -999 -999 -999 -999 -999
2008-02-13 09:01:10 51°19.121 2°53.867 -999 -999 -999 -999 -999
2008-02-13 09:01:15 51°19.135 2°53.879 -999 -999 -999 -999 -999
2008-02-13 09:01:20 51°19.15 2°53.891 -999 -999 -999 -999 -999
2008-02-13 09:01:25 51°19.164 2°53.905 -999 -999 -999 -999 -999
2008-02-13 09:01:30 51°19.178 2°53.918 -999 -999 -999 -999 -999
2008-02-13 09:01:35 51°19.192 2°53.931 -999 -999 -999 -999 -999
2008-02-13 09:01:40 51°19.207 2°53.944 -999 -999 -999 -999 -999
2008-02-13 09:01:45 51°19.221 2°53.958 -999 -999 -999 -999 -999
2008-02-13 09:01:50 51°19.235 2°53.97 -999 -999 -999 -999 -999
2008-02-13 09:01:55 51°19.25 2°53.984 -999 -999 -999 -999 -999
2008-02-13 09:02:00 51°19.264 2°53.996 -999 -999 -999 -999 -999
2008-02-13 09:02:05 51°19.278 2°54.011 -999 -999 -999 -999 -999
2008-02-13 09:02:10 51°19.292 2°54.024 -999 -999 -999 -999 -999
2008-02-13 09:02:15 51°19.306 2°54.039 -999 -999 -999 -999 -999
2008-02-13 09:02:20 51°19.319 2°54.053 -999 -999 -999 -999 -999
2008-02-13 09:02:25 51°19.333 2°54.068 -999 -999 -999 -999 -999
2008-02-13 09:02:30 51°19.346 2°54.083 -999 -999 -999 -999 -999
2008-02-13 09:02:35 51°19.36 2°54.098 -999 -999 -999 -999 -999
2008-02-13 09:02:40 51°19.373 2°54.113 -999 -999 -999 -999 -999
2008-02-13 09:02:45 51°19.387 2°54.127 -999 -999 -999 -999 -999
2008-02-13 09:02:50 51°19.4 2°54.142 -999 -999 -999 -999 -999
2008-02-13 09:02:55 51°19.414 2°54.156 -999 -999 -999 -999 -999
2008-02-13 09:03:00 51°19.428 2°54.17 -999 -999 -999 -999 -999
2008-02-13 09:03:05 51°19.442 2°54.184 -999 -999 -999 -999 -999
2008-02-13 09:03:10 51°19.456 2°54.198 -999 -999 -999 -999 -999
2008-02-13 09:03:15 51°19.469 2°54.212 -999 -999 -999 -999 -999
2008-02-13 09:03:20 51°19.482 2°54.228 -999 -999 -999 -999 -999
2008-02-13 09:03:25 51°19.496 2°54.243 -999 -999 -999 -999 -999
2008-02-13 09:03:30 51°19.509 2°54.259 -999 -999 -999 -999 -999
2008-02-13 09:03:35 51°19.521 2°54.275 -999 -999 -999 -999 -999
2008-02-13 09:03:40 51°19.534 2°54.291 -999 -999 -999 -999 -999
2008-02-13 09:03:45 51°19.547 2°54.307 -999 -999 -999 -999 -999
2008-02-13 09:03:50 51°19.56 2°54.323 -999 -999 -999 -999 -999
2008-02-13 09:03:55 51°19.573 2°54.339 -999 -999 -999 -999 -999
2008-02-13 09:04:00 51°19.586 2°54.355 -999 -999 -999 -999 -999
2008-02-13 09:04:05 51°19.599 2°54.371 -999 -999 -999 -999 -999
2008-02-13 09:04:10 51°19.612 2°54.386 -999 -999 -999 -999 -999
2008-02-13 09:04:15 51°19.625 2°54.402 -999 -999 -999 -999 -999
2008-02-13 09:04:20 51°19.638 2°54.417 -999 -999 -999 -999 -999
2008-02-13 09:04:25 51°19.651 2°54.433 -999 -999 -999 -999 -999
2008-02-13 09:04:30 51°19.665 2°54.448 -999 -999 -999 -999 -999
2008-02-13 09:04:35 51°19.678 2°54.464 -999 -999 -999 -999 -999
2008-02-13 09:04:40 51°19.691 2°54.479 -999 -999 -999 -999 -999
2008-02-13 09:04:45 51°19.704 2°54.494 -999 -999 -999 -999 -999
2008-02-13 09:04:50 51°19.717 2°54.51 -999 -999 -999 -999 -999
2008-02-13 09:04:55 51°19.73 2°54.526 -999 -999 -999 -999 -999
2008-02-13 09:05:00 51°19.742 2°54.542 -999 -999 -999 -999 -999
2008-02-13 09:05:05 51°19.755 2°54.558 -999 -999 -999 -999 -999
2008-02-13 09:05:10 51°19.768 2°54.574 -999 -999 -999 -999 -999
2008-02-13 09:05:15 51°19.781 2°54.59 -999 -999 -999 -999 -999
2008-02-13 09:05:20 51°19.794 2°54.606 -999 -999 -999 -999 -999
2008-02-13 09:05:25 51°19.807 2°54.621 -999 -999 -999 -999 -999
2008-02-13 09:05:30 51°19.82 2°54.637 -999 -999 -999 -999 -999
2008-02-13 09:05:35 51°19.833 2°54.652 -999 -999 -999 -999 -999
2008-02-13 09:05:40 51°19.846 2°54.668 -999 -999 -999 -999 -999
2008-02-13 09:05:45 51°19.86 2°54.683 -999 -999 -999 -999 -999
2008-02-13 09:05:50 51°19.873 2°54.699 -999 -999 -999 -999 -999
2008-02-13 09:05:55 51°19.886 2°54.714 -999 -999 -999 -999 -999
2008-02-13 09:06:00 51°19.899 2°54.729 -999 -999 -999 -999 -999
2008-02-13 09:06:05 51°19.912 2°54.744 -999 -999 -999 -999 -999
2008-02-13 09:06:10 51°19.925 2°54.759 -999 -999 -999 -999 -999
2008-02-13 09:06:15 51°19.938 2°54.775 -999 -999 -999 -999 -999
2008-02-13 09:06:20 51°19.951 2°54.791 -999 -999 -999 -999 -999
2008-02-13 09:06:25 51°19.964 2°54.807 -999 -999 -999 -999 -999
2008-02-13 09:06:30 51°19.977 2°54.823 -999 -999 -999 -999 -999
2008-02-13 09:06:35 51°19.99 2°54.839 -999 -999 -999 -999 -999
2008-02-13 09:06:40 51°20.003 2°54.855 -999 -999 -999 -999 -999
2008-02-13 09:06:45 51°20.016 2°54.871 -999 -999 -999 -999 -999
2008-02-13 09:06:50 51°20.029 2°54.887 -999 -999 -999 -999 -999
2008-02-13 09:06:55 51°20.042 2°54.903 -999 -999 -999 -999 -999
2008-02-13 09:07:00 51°20.055 2°54.919 -999 -999 -999 -999 -999
2008-02-13 09:07:05 51°20.068 2°54.934 -999 -999 -999 -999 -999
2008-02-13 09:07:10 51°20.081 2°54.951 -999 -999 -999 -999 -999
2008-02-13 09:07:15 51°20.094 2°54.966 -999 -999 -999 -999 -999
2008-02-13 09:07:20 51°20.107 2°54.981 -999 -999 -999 -999 -999
2008-02-13 09:07:25 51°20.121 2°54.997 -999 -999 -999 -999 -999
2008-02-13 09:07:30 51°20.134 2°55.012 -999 -999 -999 -999 -999
2008-02-13 09:07:35 51°20.148 2°55.028 -999 -999 -999 -999 -999
2008-02-13 09:07:40 51°20.161 2°55.043 -999 -999 -999 -999 -999
2008-02-13 09:07:45 51°20.174 2°55.059 -999 -999 -999 -999 -999
2008-02-13 09:07:50 51°20.187 2°55.076 -999 -999 -999 -999 -999
2008-02-13 09:07:55 51°20.2 2°55.092 -999 -999 -999 -999 -999
2008-02-13 09:08:00 51°20.213 2°55.108 -999 -999 -999 -999 -999
2008-02-13 09:08:05 51°20.226 2°55.124 -999 -999 -999 -999 -999
2008-02-13 09:08:10 51°20.239 2°55.14 -999 -999 -999 -999 -999
2008-02-13 09:08:15 51°20.252 2°55.156 -999 -999 -999 -999 -999
2008-02-13 09:08:20 51°20.265 2°55.172 -999 -999 -999 -999 -999
2008-02-13 09:08:25 51°20.278 2°55.188 -999 -999 -999 -999 -999
2008-02-13 09:08:30 51°20.292 2°55.203 -999 -999 -999 -999 -999
2008-02-13 09:08:35 51°20.305 2°55.218 -999 -999 -999 -999 -999
2008-02-13 09:08:40 51°20.319 2°55.234 -999 -999 -999 -999 -999
2008-02-13 09:08:45 51°20.332 2°55.249 -999 -999 -999 -999 -999
2008-02-13 09:08:50 51°20.345 2°55.265 -999 -999 -999 -999 -999
2008-02-13 09:08:55 51°20.358 2°55.281 -999 -999 -999 -999 -999
2008-02-13 09:09:00 51°20.371 2°55.297 -999 -999 -999 -999 -999
2008-02-13 09:09:05 51°20.384 2°55.313 -999 -999 -999 -999 -999
2008-02-13 09:09:10 51°20.397 2°55.329 -999 -999 -999 -999 -999
2008-02-13 09:09:15 51°20.41 2°55.345 -999 -999 -999 -999 -999
2008-02-13 09:09:20 51°20.423 2°55.361 -999 -999 -999 -999 -999
2008-02-13 09:09:25 51°20.436 2°55.377 -999 -999 -999 -999 -999
2008-02-13 09:09:30 51°20.45 2°55.392 -999 -999 -999 -999 -999
2008-02-13 09:09:35 51°20.463 2°55.407 -999 -999 -999 -999 -999
2008-02-13 09:09:40 51°20.476 2°55.423 -999 -999 -999 -999 -999
2008-02-13 09:09:45 51°20.489 2°55.438 -999 -999 -999 -999 -999
2008-02-13 09:09:50 51°20.502 2°55.454 -999 -999 -999 -999 -999
2008-02-13 09:09:55 51°20.516 2°55.469 -999 -999 -999 -999 -999
2008-02-13 09:10:00 51°20.529 2°55.484 -999 -999 -999 -999 -999
2008-02-13 09:10:05 51°20.542 2°55.5 -999 -999 -999 -999 -999
2008-02-13 09:10:10 51°20.555 2°55.515 -999 -999 -999 -999 -999
2008-02-13 09:10:15 51°20.568 2°55.53 -999 -999 -999 -999 -999
2008-02-13 09:10:20 51°20.581 2°55.546 -999 -999 -999 -999 -999
2008-02-13 09:10:25 51°20.595 2°55.561 -999 -999 -999 -999 -999
2008-02-13 09:10:30 51°20.608 2°55.577 -999 -999 -999 -999 -999
2008-02-13 09:10:35 51°20.621 2°55.593 -999 -999 -999 -999 -999
2008-02-13 09:10:40 51°20.634 2°55.609 -999 -999 -999 -999 -999
2008-02-13 09:10:45 51°20.647 2°55.625 -999 -999 -999 -999 -999
2008-02-13 09:10:50 51°20.66 2°55.641 -999 -999 -999 -999 -999
2008-02-13 09:10:55 51°20.673 2°55.657 -999 -999 -999 -999 -999
2008-02-13 09:11:00 51°20.686 2°55.673 -999 -999 -999 -999 -999
2008-02-13 09:11:05 51°20.699 2°55.689 -999 -999 -999 -999 -999
2008-02-13 09:11:10 51°20.712 2°55.705 -999 -999 -999 -999 -999
2008-02-13 09:11:15 51°20.725 2°55.721 -999 -999 -999 -999 -999
2008-02-13 09:11:20 51°20.738 2°55.737 -999 -999 -999 -999 -999
2008-02-13 09:11:25 51°20.751 2°55.753 -999 -999 -999 -999 -999
2008-02-13 09:11:30 51°20.764 2°55.769 -999 -999 -999 -999 -999
2008-02-13 09:11:35 51°20.778 2°55.784 -999 -999 -999 -999 -999
2008-02-13 09:11:40 51°20.791 2°55.799 -999 -999 -999 -999 -999
2008-02-13 09:11:45 51°20.804 2°55.815 -999 -999 -999 -999 -999
2008-02-13 09:11:50 51°20.818 2°55.83 -999 -999 -999 -999 -999
2008-02-13 09:11:55 51°20.831 2°55.845 -999 -999 -999 -999 -999
2008-02-13 09:12:00 51°20.844 2°55.861 -999 -999 -999 -999 -999
2008-02-13 09:12:05 51°20.858 2°55.876 -999 -999 -999 -999 -999
2008-02-13 09:12:10 51°20.871 2°55.892 -999 -999 -999 -999 -999
2008-02-13 09:12:15 51°20.884 2°55.908 -999 -999 -999 -999 -999
2008-02-13 09:12:20 51°20.897 2°55.925 -999 -999 -999 -999 -999
2008-02-13 09:12:25 51°20.91 2°55.941 -999 -999 -999 -999 -999
2008-02-13 09:12:30 51°20.922 2°55.958 -999 -999 -999 -999 -999
2008-02-13 09:12:35 51°20.935 2°55.975 -999 -999 -999 -999 -999
2008-02-13 09:12:40 51°20.947 2°55.992 -999 -999 -999 -999 -999
2008-02-13 09:12:45 51°20.959 2°56.009 -999 -999 -999 -999 -999
2008-02-13 09:12:50 51°20.972 2°56.027 -999 -999 -999 -999 -999
2008-02-13 09:12:55 51°20.984 2°56.043 -999 -999 -999 -999 -999
2008-02-13 09:13:00 51°20.996 2°56.061 -999 -999 -999 -999 -999
2008-02-13 09:13:05 51°21.009 2°56.078 -999 -999 -999 -999 -999
2008-02-13 09:13:10 51°21.021 2°56.095 -999 -999 -999 -999 -999
2008-02-13 09:13:15 51°21.034 2°56.112 -999 -999 -999 -999 -999
2008-02-13 09:13:20 51°21.046 2°56.128 -999 -999 -999 -999 -999
2008-02-13 09:13:25 51°21.059 2°56.145 -999 -999 -999 -999 -999
2008-02-13 09:13:30 51°21.072 2°56.162 -999 -999 -999 -999 -999
2008-02-13 09:13:35 51°21.084 2°56.178 -999 -999 -999 -999 -999
2008-02-13 09:13:40 51°21.097 2°56.195 -999 -999 -999 -999 -999
2008-02-13 09:13:45 51°21.11 2°56.212 -999 -999 -999 -999 -999
2008-02-13 09:13:50 51°21.123 2°56.228 -999 -999 -999 -999 -999
2008-02-13 09:13:55 51°21.135 2°56.245 -999 -999 -999 -999 -999
2008-02-13 09:14:00 51°21.148 2°56.262 -999 -999 -999 -999 -999
2008-02-13 09:14:05 51°21.161 2°56.279 -999 -999 -999 -999 -999
2008-02-13 09:14:10 51°21.174 2°56.296 -999 -999 -999 -999 -999
2008-02-13 09:14:15 51°21.186 2°56.313 -999 -999 -999 -999 -999
2008-02-13 09:14:20 51°21.198 2°56.33 -999 -999 -999 -999 -999
2008-02-13 09:14:25 51°21.211 2°56.347 -999 -999 -999 -999 -999
2008-02-13 09:14:30 51°21.223 2°56.364 -999 -999 -999 -999 -999
2008-02-13 09:14:35 51°21.235 2°56.382 -999 -999 -999 -999 -999
2008-02-13 09:14:40 51°21.248 2°56.399 -999 -999 -999 -999 -999
2008-02-13 09:14:45 51°21.259 2°56.418 -999 -999 -999 -999 -999
2008-02-13 09:14:50 51°21.271 2°56.435 -999 -999 -999 -999 -999
2008-02-13 09:14:55 51°21.283 2°56.453 -999 -999 -999 -999 -999
2008-02-13 09:15:00 51°21.295 2°56.471 -999 -999 -999 -999 -999
2008-02-13 09:15:05 51°21.307 2°56.489 -999 -999 -999 -999 -999
2008-02-13 09:15:10 51°21.319 2°56.507 -999 -999 -999 -999 -999
2008-02-13 09:15:15 51°21.332 2°56.524 -999 -999 -999 -999 -999
2008-02-13 09:15:20 51°21.344 2°56.542 -999 -999 -999 -999 -999
2008-02-13 09:15:25 51°21.356 2°56.56 -999 -999 -999 -999 -999
2008-02-13 09:15:30 51°21.367 2°56.578 -999 -999 -999 -999 -999
2008-02-13 09:15:35 51°21.38 2°56.595 -999 -999 -999 -999 -999
2008-02-13 09:15:40 51°21.392 2°56.613 -999 -999 -999 -999 -999
2008-02-13 09:15:45 51°21.404 2°56.631 -999 -999 -999 -999 -999
2008-02-13 09:15:50 51°21.416 2°56.649 -999 -999 -999 -999 -999
2008-02-13 09:15:55 51°21.428 2°56.666 -999 -999 -999 -999 -999
2008-02-13 09:16:00 51°21.44 2°56.684 -999 -999 -999 -999 -999
2008-02-13 09:16:05 51°21.452 2°56.702 -999 -999 -999 -999 -999
2008-02-13 09:16:10 51°21.464 2°56.72 -999 -999 -999 -999 -999
2008-02-13 09:16:15 51°21.476 2°56.737 -999 -999 -999 -999 -999
2008-02-13 09:16:20 51°21.489 2°56.755 -999 -999 -999 -999 -999
2008-02-13 09:16:25 51°21.501 2°56.773 -999 -999 -999 -999 -999
2008-02-13 09:16:30 51°21.513 2°56.791 -999 -999 -999 -999 -999
2008-02-13 09:16:35 51°21.525 2°56.809 -999 -999 -999 -999 -999
2008-02-13 09:16:40 51°21.537 2°56.826 -999 -999 -999 -999 -999
2008-02-13 09:16:45 51°21.549 2°56.844 -999 -999 -999 -999 -999
2008-02-13 09:16:50 51°21.561 2°56.862 -999 -999 -999 -999 -999
2008-02-13 09:16:55 51°21.573 2°56.88 -999 -999 -999 -999 -999
2008-02-13 09:17:00 51°21.585 2°56.898 -999 -999 -999 -999 -999
2008-02-13 09:17:05 51°21.597 2°56.916 -999 -999 -999 -999 -999
2008-02-13 09:17:10 51°21.61 2°56.934 -999 -999 -999 -999 -999
2008-02-13 09:17:15 51°21.622 2°56.951 -999 -999 -999 -999 -999
2008-02-13 09:17:20 51°21.635 2°56.969 -999 -999 -999 -999 -999
2008-02-13 09:17:25 51°21.647 2°56.986 -999 -999 -999 -999 -999
2008-02-13 09:17:30 51°21.659 2°57.003 -999 -999 -999 -999 -999
2008-02-13 09:17:35 51°21.671 2°57.021 -999 -999 -999 -999 -999
2008-02-13 09:17:40 51°21.684 2°57.039 -999 -999 -999 -999 -999
2008-02-13 09:17:45 51°21.696 2°57.056 -999 -999 -999 -999 -999
2008-02-13 09:17:50 51°21.709 2°57.074 -999 -999 -999 -999 -999
2008-02-13 09:17:55 51°21.721 2°57.091 -999 -999 -999 -999 -999
2008-02-13 09:18:00 51°21.733 2°57.109 -999 -999 -999 -999 -999
2008-02-13 09:18:05 51°21.746 2°57.126 -999 -999 -999 -999 -999
2008-02-13 09:18:10 51°21.758 2°57.144 -999 -999 -999 -999 -999
2008-02-13 09:18:15 51°21.771 2°57.161 -999 -999 -999 -999 -999
2008-02-13 09:18:20 51°21.783 2°57.179 -999 -999 -999 -999 -999
2008-02-13 09:18:25 51°21.795 2°57.197 -999 -999 -999 -999 -999
2008-02-13 09:18:30 51°21.807 2°57.214 -999 -999 -999 -999 -999
2008-02-13 09:18:35 51°21.82 2°57.232 -999 -999 -999 -999 -999
2008-02-13 09:18:40 51°21.832 2°57.25 -999 -999 -999 -999 -999
2008-02-13 09:18:45 51°21.844 2°57.268 -999 -999 -999 -999 -999
2008-02-13 09:18:50 51°21.856 2°57.287 -999 -999 -999 -999 -999
2008-02-13 09:18:55 51°21.868 2°57.305 -999 -999 -999 -999 -999
2008-02-13 09:19:00 51°21.88 2°57.322 -999 -999 -999 -999 -999
2008-02-13 09:19:05 51°21.893 2°57.34 -999 -999 -999 -999 -999
2008-02-13 09:19:10 51°21.905 2°57.358 -999 -999 -999 -999 -999
2008-02-13 09:19:15 51°21.918 2°57.375 -999 -999 -999 -999 -999
2008-02-13 09:19:20 51°21.93 2°57.393 -999 -999 -999 -999 -999
2008-02-13 09:19:25 51°21.942 2°57.41 -999 -999 -999 -999 -999
2008-02-13 09:19:30 51°21.955 2°57.428 -999 -999 -999 -999 -999
2008-02-13 09:19:35 51°21.967 2°57.446 -999 -999 -999 -999 -999
2008-02-13 09:19:40 51°21.979 2°57.464 -999 -999 -999 -999 -999
2008-02-13 09:19:45 51°21.992 2°57.481 -999 -999 -999 -999 -999
2008-02-13 09:19:50 51°22.004 2°57.499 -999 -999 -999 -999 -999
2008-02-13 09:19:55 51°22.016 2°57.517 -999 -999 -999 -999 -999
2008-02-13 09:20:00 51°22.029 2°57.535 -999 -999 -999 -999 -999
2008-02-13 09:20:05 51°22.041 2°57.553 -999 -999 -999 -999 -999
2008-02-13 09:20:10 51°22.053 2°57.571 -999 -999 -999 -999 -999
2008-02-13 09:20:15 51°22.065 2°57.589 -999 -999 -999 -999 -999
2008-02-13 09:20:20 51°22.077 2°57.607 -999 -999 -999 -999 -999
2008-02-13 09:20:25 51°22.089 2°57.625 -999 -999 -999 -999 -999
2008-02-13 09:20:30 51°22.101 2°57.643 -999 -999 -999 -999 -999
2008-02-13 09:20:35 51°22.113 2°57.661 -999 -999 -999 -999 -999
2008-02-13 09:20:40 51°22.125 2°57.679 -999 -999 -999 -999 -999
2008-02-13 09:20:45 51°22.137 2°57.697 -999 -999 -999 -999 -999
2008-02-13 09:20:50 51°22.149 2°57.715 -999 -999 -999 -999 -999
2008-02-13 09:20:55 51°22.161 2°57.733 -999 -999 -999 -999 -999
2008-02-13 09:21:00 51°22.174 2°57.751 -999 -999 -999 -999 -999
2008-02-13 09:21:05 51°22.186 2°57.769 -999 -999 -999 -999 -999
2008-02-13 09:21:10 51°22.198 2°57.786 -999 -999 -999 -999 -999
2008-02-13 09:21:15 51°22.21 2°57.804 -999 -999 -999 -999 -999
2008-02-13 09:21:20 51°22.222 2°57.822 -999 -999 -999 -999 -999
2008-02-13 09:21:25 51°22.234 2°57.84 -999 -999 -999 -999 -999
2008-02-13 09:21:30 51°22.246 2°57.858 -999 -999 -999 -999 -999
2008-02-13 09:21:35 51°22.258 2°57.877 -999 -999 -999 -999 -999
2008-02-13 09:21:40 51°22.27 2°57.895 -999 -999 -999 -999 -999
2008-02-13 09:21:45 51°22.282 2°57.913 -999 -999 -999 -999 -999
2008-02-13 09:21:50 51°22.295 2°57.931 -999 -999 -999 -999 -999
2008-02-13 09:21:55 51°22.307 2°57.949 -999 -999 -999 -999 -999
2008-02-13 09:22:00 51°22.319 2°57.967 -999 -999 -999 -999 -999
2008-02-13 09:22:05 51°22.331 2°57.985 -999 -999 -999 -999 -999
2008-02-13 09:22:10 51°22.343 2°58.003 -999 -999 -999 -999 -999
2008-02-13 09:22:15 51°22.356 2°58.021 -999 -999 -999 -999 -999
2008-02-13 09:22:20 51°22.368 2°58.039 -999 -999 -999 -999 -999
2008-02-13 09:22:25 51°22.38 2°58.057 -999 -999 -999 -999 -999
2008-02-13 09:22:30 51°22.392 2°58.075 -999 -999 -999 -999 -999
2008-02-13 09:22:35 51°22.404 2°58.094 -999 -999 -999 -999 -999
2008-02-13 09:22:40 51°22.416 2°58.112 -999 -999 -999 -999 -999
2008-02-13 09:22:45 51°22.428 2°58.13 -999 -999 -999 -999 -999
2008-02-13 09:22:50 51°22.44 2°58.148 -999 -999 -999 -999 -999
2008-02-13 09:22:55 51°22.452 2°58.166 -999 -999 -999 -999 -999
2008-02-13 09:23:00 51°22.464 2°58.184 -999 -999 -999 -999 -999
2008-02-13 09:23:05 51°22.477 2°58.201 -999 -999 -999 -999 -999
2008-02-13 09:23:10 51°22.489 2°58.219 -999 -999 -999 -999 -999
2008-02-13 09:23:15 51°22.501 2°58.237 -999 -999 -999 -999 -999
2008-02-13 09:23:20 51°22.514 2°58.255 -999 -999 -999 -999 -999
2008-02-13 09:23:25 51°22.526 2°58.273 -999 -999 -999 -999 -999
2008-02-13 09:23:30 51°22.538 2°58.291 -999 -999 -999 -999 -999
2008-02-13 09:23:35 51°22.55 2°58.309 -999 -999 -999 -999 -999
2008-02-13 09:23:40 51°22.563 2°58.327 -999 -999 -999 -999 -999
2008-02-13 09:23:45 51°22.575 2°58.344 -999 -999 -999 -999 -999
2008-02-13 09:23:50 51°22.587 2°58.362 -999 -999 -999 -999 -999
2008-02-13 09:23:55 51°22.599 2°58.38 -999 -999 -999 -999 -999
2008-02-13 09:24:00 51°22.612 2°58.398 -999 -999 -999 -999 -999
2008-02-13 09:24:05 51°22.624 2°58.417 -999 -999 -999 -999 -999
2008-02-13 09:24:10 51°22.636 2°58.435 -999 -999 -999 -999 -999
2008-02-13 09:24:15 51°22.648 2°58.453 -999 -999 -999 -999 -999
2008-02-13 09:24:20 51°22.66 2°58.471 -999 -999 -999 -999 -999
2008-02-13 09:24:25 51°22.673 2°58.49 -999 -999 -999 -999 -999
2008-02-13 09:24:30 51°22.685 2°58.508 -999 -999 -999 -999 -999
2008-02-13 09:24:35 51°22.697 2°58.526 -999 -999 -999 -999 -999
2008-02-13 09:24:40 51°22.709 2°58.544 -999 -999 -999 -999 -999
2008-02-13 09:24:45 51°22.722 2°58.562 -999 -999 -999 -999 -999
2008-02-13 09:24:50 51°22.734 2°58.58 -999 -999 -999 -999 -999
2008-02-13 09:24:55 51°22.746 2°58.599 -999 -999 -999 -999 -999
2008-02-13 09:25:00 51°22.758 2°58.617 -999 -999 -999 -999 -999
2008-02-13 09:25:05 51°22.77 2°58.635 -999 -999 -999 -999 -999
2008-02-13 09:25:10 51°22.782 2°58.654 -999 -999 -999 -999 -999
2008-02-13 09:25:15 51°22.794 2°58.673 -999 -999 -999 -999 -999
2008-02-13 09:25:20 51°22.806 2°58.691 -999 -999 -999 -999 -999
2008-02-13 09:25:25 51°22.818 2°58.709 -999 -999 -999 -999 -999
2008-02-13 09:25:30 51°22.831 2°58.727 -999 -999 -999 -999 -999
2008-02-13 09:25:35 51°22.843 2°58.745 -999 -999 -999 -999 -999
2008-02-13 09:25:40 51°22.855 2°58.763 -999 -999 -999 -999 -999
2008-02-13 09:25:45 51°22.867 2°58.781 -999 -999 -999 -999 -999
2008-02-13 09:25:50 51°22.88 2°58.799 -999 -999 -999 -999 -999
2008-02-13 09:25:55 51°22.892 2°58.817 -999 -999 -999 -999 -999
2008-02-13 09:26:00 51°22.904 2°58.835 -999 -999 -999 -999 -999
2008-02-13 09:26:05 51°22.916 2°58.854 -999 -999 -999 -999 -999
2008-02-13 09:26:10 51°22.928 2°58.872 -999 -999 -999 -999 -999
2008-02-13 09:26:15 51°22.941 2°58.89 -999 -999 -999 -999 -999
2008-02-13 09:26:20 51°22.953 2°58.908 -999 -999 -999 -999 -999
2008-02-13 09:26:25 51°22.965 2°58.926 -999 -999 -999 -999 -999
2008-02-13 09:26:30 51°22.977 2°58.945 -999 -999 -999 -999 -999
2008-02-13 09:26:35 51°22.989 2°58.963 -999 -999 -999 -999 -999
2008-02-13 09:26:40 51°23.001 2°58.982 -999 -999 -999 -999 -999
2008-02-13 09:26:45 51°23.013 2°59 -999 -999 -999 -999 -999
2008-02-13 09:26:50 51°23.024 2°59.018 -999 -999 -999 -999 -999
2008-02-13 09:26:55 51°23.037 2°59.037 -999 -999 -999 -999 -999
2008-02-13 09:27:00 51°23.049 2°59.055 -999 -999 -999 -999 -999
2008-02-13 09:27:05 51°23.061 2°59.073 -999 -999 -999 -999 -999
2008-02-13 09:27:10 51°23.073 2°59.091 -999 -999 -999 -999 -999
2008-02-13 09:27:15 51°23.085 2°59.11 -999 -999 -999 -999 -999
2008-02-13 09:27:20 51°23.097 2°59.128 -999 -999 -999 -999 -999
2008-02-13 09:27:25 51°23.109 2°59.146 -999 -999 -999 -999 -999
2008-02-13 09:27:30 51°23.12 2°59.164 -999 -999 -999 -999 -999
2008-02-13 09:27:35 51°23.132 2°59.183 -999 -999 -999 -999 -999
2008-02-13 09:27:40 51°23.145 2°59.201 -999 -999 -999 -999 -999
2008-02-13 09:27:45 51°23.156 2°59.219 -999 -999 -999 -999 -999
2008-02-13 09:27:50 51°23.169 2°59.237 -999 -999 -999 -999 -999
2008-02-13 09:27:55 51°23.181 2°59.255 -999 -999 -999 -999 -999
2008-02-13 09:28:00 51°23.193 2°59.272 -999 -999 -999 -999 -999
2008-02-13 09:28:05 51°23.205 2°59.291 -999 -999 -999 -999 -999
2008-02-13 09:28:10 51°23.217 2°59.309 -999 -999 -999 -999 -999
2008-02-13 09:28:15 51°23.229 2°59.327 -999 -999 -999 -999 -999
2008-02-13 09:28:20 51°23.241 2°59.345 -999 -999 -999 -999 -999
2008-02-13 09:28:25 51°23.253 2°59.363 -999 -999 -999 -999 -999
2008-02-13 09:28:30 51°23.265 2°59.381 -999 -999 -999 -999 -999
2008-02-13 09:28:35 51°23.277 2°59.399 -999 -999 -999 -999 -999
2008-02-13 09:28:40 51°23.289 2°59.417 -999 -999 -999 -999 -999
2008-02-13 09:28:45 51°23.301 2°59.436 -999 -999 -999 -999 -999
2008-02-13 09:28:50 51°23.313 2°59.454 -999 -999 -999 -999 -999
2008-02-13 09:28:55 51°23.325 2°59.472 -999 -999 -999 -999 -999
2008-02-13 09:29:00 51°23.337 2°59.49 -999 -999 -999 -999 -999
2008-02-13 09:29:05 51°23.349 2°59.508 -999 -999 -999 -999 -999
2008-02-13 09:29:10 51°23.361 2°59.526 -999 -999 -999 -999 -999
2008-02-13 09:29:15 51°23.373 2°59.544 -999 -999 -999 -999 -999
2008-02-13 09:29:20 51°23.385 2°59.561 -999 -999 -999 -999 -999
2008-02-13 09:29:25 51°23.397 2°59.579 -999 -999 -999 -999 -999
2008-02-13 09:29:30 51°23.409 2°59.597 -999 -999 -999 -999 -999
2008-02-13 09:29:35 51°23.421 2°59.615 -999 -999 -999 -999 -999
2008-02-13 09:29:40 51°23.433 2°59.632 -999 -999 -999 -999 -999
2008-02-13 09:29:45 51°23.446 2°59.65 -999 -999 -999 -999 -999
2008-02-13 09:29:50 51°23.458 2°59.668 -999 -999 -999 -999 -999
2008-02-13 09:29:55 51°23.47 2°59.686 -999 -999 -999 -999 -999
2008-02-13 09:30:00 51°23.482 2°59.704 -999 -999 -999 -999 -999
2008-02-13 09:30:05 51°23.493 2°59.722 -999 -999 -999 -999 -999
2008-02-13 09:30:10 51°23.505 2°59.74 -999 -999 -999 -999 -999
2008-02-13 09:30:15 51°23.517 2°59.758 -999 -999 -999 -999 -999
2008-02-13 09:30:20 51°23.529 2°59.777 -999 -999 -999 -999 -999
2008-02-13 09:30:25 51°23.541 2°59.795 -999 -999 -999 -999 -999
2008-02-13 09:30:30 51°23.553 2°59.813 -999 -999 -999 -999 -999
2008-02-13 09:30:35 51°23.565 2°59.831 -999 -999 -999 -999 -999
2008-02-13 09:30:40 51°23.577 2°59.849 -999 -999 -999 -999 -999
2008-02-13 09:30:45 51°23.589 2°59.868 -999 -999 -999 -999 -999
2008-02-13 09:30:50 51°23.601 2°59.886 -999 -999 -999 -999 -999
2008-02-13 09:30:55 51°23.613 2°59.904 -999 -999 -999 -999 -999
2008-02-13 09:31:00 51°23.625 2°59.922 -999 -999 -999 -999 -999
2008-02-13 09:31:05 51°23.637 2°59.939 -999 -999 -999 -999 -999
2008-02-13 09:31:10 51°23.649 2°59.958 -999 -999 -999 -999 -999
2008-02-13 09:31:15 51°23.662 2°59.976 -999 -999 -999 -999 -999
2008-02-13 09:31:20 51°23.673 2°59.994 -999 -999 -999 -999 -999
2008-02-13 09:31:25 51°23.685 3°0.012 -999 -999 -999 -999 -999
2008-02-13 09:31:30 51°23.697 3°0.031 -999 -999 -999 -999 -999
2008-02-13 09:31:35 51°23.709 3°0.049 -999 -999 -999 -999 -999
2008-02-13 09:31:40 51°23.721 3°0.067 -999 -999 -999 -999 -999
2008-02-13 09:31:45 51°23.734 3°0.083 -999 -999 -999 -999 -999
2008-02-13 09:31:50 51°23.748 3°0.098 -999 -999 -999 -999 -999
2008-02-13 09:31:55 51°23.762 3°0.11 -999 -999 -999 -999 -999
2008-02-13 09:32:00 51°23.777 3°0.12 -999 -999 -999 -999 -999
2008-02-13 09:32:05 51°23.793 3°0.128 -999 -999 -999 -999 -999
2008-02-13 09:32:10 51°23.809 3°0.133 -999 -999 -999 -999 -999
2008-02-13 09:32:15 51°23.825 3°0.136 -999 -999 -999 -999 -999
2008-02-13 09:32:20 51°23.842 3°0.136 -999 -999 -999 -999 -999
2008-02-13 09:32:25 51°23.859 3°0.133 -999 -999 -999 -999 -999
2008-02-13 09:32:30 51°23.875 3°0.128 -999 -999 -999 -999 -999
2008-02-13 09:32:35 51°23.891 3°0.12 -999 -999 -999 -999 -999
2008-02-13 09:32:40 51°23.907 3°0.11 -999 -999 -999 -999 -999
2008-02-13 09:32:45 51°23.923 3°0.097 -999 -999 -999 -999 -999
2008-02-13 09:32:50 51°23.937 3°0.082 -999 -999 -999 -999 -999
2008-02-13 09:32:55 51°23.951 3°0.065 -999 -999 -999 -999 -999
2008-02-13 09:33:00 51°23.963 3°0.045 -999 -999 -999 -999 -999
2008-02-13 09:33:05 51°23.975 3°0.024 -999 -999 -999 -999 -999
2008-02-13 09:33:10 51°23.987 3°0.002 -999 -999 -999 -999 -999
2008-02-13 09:33:15 51°23.999 2°59.981 -999 -999 -999 -999 -999
2008-02-13 09:33:20 51°24.011 2°59.959 -999 -999 -999 -999 -999
2008-02-13 09:33:25 51°24.023 2°59.937 -999 -999 -999 -999 -999
2008-02-13 09:33:30 51°24.035 2°59.914 -999 -999 -999 -999 -999
2008-02-13 09:33:35 51°24.047 2°59.892 -999 -999 -999 -999 -999
2008-02-13 09:33:40 51°24.059 2°59.869 -999 -999 -999 -999 -999
2008-02-13 09:33:45 51°24.071 2°59.846 -999 -999 -999 -999 -999
2008-02-13 09:33:50 51°24.082 2°59.823 -999 -999 -999 -999 -999
2008-02-13 09:33:55 51°24.094 2°59.8 -999 -999 -999 -999 -999
2008-02-13 09:34:00 51°24.106 2°59.777 -999 -999 -999 -999 -999
2008-02-13 09:34:05 51°24.119 2°59.755 -999 -999 -999 -999 -999
2008-02-13 09:34:10 51°24.131 2°59.732 -999 -999 -999 -999 -999
2008-02-13 09:34:15 51°24.142 2°59.709 -999 -999 -999 -999 -999
2008-02-13 09:34:20 51°24.151 2°59.684 -999 -999 -999 -999 -999
2008-02-13 09:34:25 51°24.16 2°59.658 -999 -999 -999 -999 -999
2008-02-13 09:34:30 51°24.168 2°59.631 -999 -999 -999 -999 -999
2008-02-13 09:34:35 51°24.176 2°59.604 -999 -999 -999 -999 -999
2008-02-13 09:34:40 51°24.181 2°59.575 -999 -999 -999 -999 -999
2008-02-13 09:34:45 51°24.187 2°59.547 -999 -999 -999 -999 -999
2008-02-13 09:34:50 51°24.192 2°59.518 -999 -999 -999 -999 -999
2008-02-13 09:34:55 51°24.197 2°59.489 -999 -999 -999 -999 -999
2008-02-13 09:35:00 51°24.201 2°59.459 -999 -999 -999 -999 -999
2008-02-13 09:35:05 51°24.205 2°59.43 -999 -999 -999 -999 -999
2008-02-13 09:35:10 51°24.208 2°59.4 -999 -999 -999 -999 -999
2008-02-13 09:35:15 51°24.211 2°59.37 -999 -999 -999 -999 -999
2008-02-13 09:35:20 51°24.214 2°59.34 -999 -999 -999 -999 -999
2008-02-13 09:35:25 51°24.216 2°59.31 -999 -999 -999 -999 -999
2008-02-13 09:35:30 51°24.219 2°59.279 -999 -999 -999 -999 -999
2008-02-13 09:35:35 51°24.222 2°59.249 -999 -999 -999 -999 -999
2008-02-13 09:35:40 51°24.225 2°59.219 -999 -999 -999 -999 -999
2008-02-13 09:35:45 51°24.228 2°59.189 -999 -999 -999 -999 -999
2008-02-13 09:35:50 51°24.231 2°59.159 -999 -999 -999 -999 -999
2008-02-13 09:35:55 51°24.234 2°59.129 -999 -999 -999 -999 -999
2008-02-13 09:36:00 51°24.238 2°59.099 -999 -999 -999 -999 -999
2008-02-13 09:36:05 51°24.241 2°59.069 -999 -999 -999 -999 -999
2008-02-13 09:36:10 51°24.244 2°59.039 -999 -999 -999 -999 -999
2008-02-13 09:36:15 51°24.247 2°59.009 -999 -999 -999 -999 -999
2008-02-13 09:36:20 51°24.25 2°58.979 -999 -999 -999 -999 -999
2008-02-13 09:36:25 51°24.253 2°58.949 -999 -999 -999 -999 -999
2008-02-13 09:36:30 51°24.256 2°58.918 -999 -999 -999 -999 -999
2008-02-13 09:36:35 51°24.259 2°58.888 -999 -999 -999 -999 -999
2008-02-13 09:36:40 51°24.262 2°58.858 -999 -999 -999 -999 -999
2008-02-13 09:36:45 51°24.264 2°58.828 -999 -999 -999 -999 -999
2008-02-13 09:36:50 51°24.267 2°58.797 -999 -999 -999 -999 -999
2008-02-13 09:36:55 51°24.27 2°58.767 -999 -999 -999 -999 -999
2008-02-13 09:37:00 51°24.273 2°58.737 -999 -999 -999 -999 -999
2008-02-13 09:37:05 51°24.277 2°58.707 -999 -999 -999 -999 -999
2008-02-13 09:37:10 51°24.28 2°58.677 -999 -999 -999 -999 -999
2008-02-13 09:37:15 51°24.283 2°58.647 -999 -999 -999 -999 -999
2008-02-13 09:37:20 51°24.286 2°58.617 -999 -999 -999 -999 -999
2008-02-13 09:37:25 51°24.289 2°58.587 -999 -999 -999 -999 -999
2008-02-13 09:37:30 51°24.292 2°58.557 -999 -999 -999 -999 -999
2008-02-13 09:37:35 51°24.294 2°58.527 -999 -999 -999 -999 -999
2008-02-13 09:37:40 51°24.297 2°58.496 -999 -999 -999 -999 -999
2008-02-13 09:37:45 51°24.3 2°58.466 -999 -999 -999 -999 -999
2008-02-13 09:37:50 51°24.303 2°58.436 -999 -999 -999 -999 -999
2008-02-13 09:37:55 51°24.306 2°58.406 -999 -999 -999 -999 -999
2008-02-13 09:38:00 51°24.309 2°58.376 -999 -999 -999 -999 -999
2008-02-13 09:38:05 51°24.312 2°58.346 -999 -999 -999 -999 -999
2008-02-13 09:38:10 51°24.315 2°58.316 -999 -999 -999 -999 -999
2008-02-13 09:38:15 51°24.319 2°58.286 -999 -999 -999 -999 -999
2008-02-13 09:38:20 51°24.322 2°58.255 -999 -999 -999 -999 -999
2008-02-13 09:38:25 51°24.325 2°58.225 -999 -999 -999 -999 -999
2008-02-13 09:38:30 51°24.328 2°58.195 -999 -999 -999 -999 -999
2008-02-13 09:38:35 51°24.331 2°58.165 -999 -999 -999 -999 -999
2008-02-13 09:38:40 51°24.334 2°58.134 -999 -999 -999 -999 -999
2008-02-13 09:38:45 51°24.337 2°58.104 -999 -999 -999 -999 -999
2008-02-13 09:38:50 51°24.34 2°58.074 -999 -999 -999 -999 -999
2008-02-13 09:38:55 51°24.343 2°58.044 -999 -999 -999 -999 -999
2008-02-13 09:39:00 51°24.346 2°58.014 -999 -999 -999 -999 -999
2008-02-13 09:39:05 51°24.35 2°57.983 -999 -999 -999 -999 -999
2008-02-13 09:39:10 51°24.353 2°57.953 -999 -999 -999 -999 -999
2008-02-13 09:39:15 51°24.356 2°57.923 -999 -999 -999 -999 -999
2008-02-13 09:39:20 51°24.36 2°57.893 -999 -999 -999 -999 -999
2008-02-13 09:39:25 51°24.363 2°57.863 -999 -999 -999 -999 -999
2008-02-13 09:39:30 51°24.366 2°57.833 -999 -999 -999 -999 -999
2008-02-13 09:39:35 51°24.369 2°57.803 -999 -999 -999 -999 -999
2008-02-13 09:39:40 51°24.372 2°57.772 -999 -999 -999 -999 -999
2008-02-13 09:39:45 51°24.375 2°57.742 -999 -999 -999 -999 -999
2008-02-13 09:39:50 51°24.378 2°57.712 -999 -999 -999 -999 -999
2008-02-13 09:39:55 51°24.381 2°57.682 -999 -999 -999 -999 -999
2008-02-13 09:40:00 51°24.385 2°57.651 -999 -999 -999 -999 -999
2008-02-13 09:40:05 51°24.388 2°57.622 -999 -999 -999 -999 -999
2008-02-13 09:40:10 51°24.392 2°57.592 -999 -999 -999 -999 -999
2008-02-13 09:40:15 51°24.395 2°57.561 -999 -999 -999 -999 -999
2008-02-13 09:40:20 51°24.398 2°57.531 -999 -999 -999 -999 -999
2008-02-13 09:40:25 51°24.402 2°57.502 -999 -999 -999 -999 -999
2008-02-13 09:40:30 51°24.406 2°57.472 -999 -999 -999 -999 -999
2008-02-13 09:40:35 51°24.41 2°57.442 -999 -999 -999 -999 -999
2008-02-13 09:40:40 51°24.415 2°57.414 -999 -999 -999 -999 -999
2008-02-13 09:40:45 51°24.422 2°57.386 -999 -999 -999 -999 -999
2008-02-13 09:40:50 51°24.428 2°57.358 -999 -999 -999 -999 -999
2008-02-13 09:40:55 51°24.435 2°57.331 -999 -999 -999 -999 -999
2008-02-13 09:41:00 51°24.444 2°57.305 -999 -999 -999 -999 -999
2008-02-13 09:41:05 51°24.452 2°57.278 -999 -999 -999 -999 -999
2008-02-13 09:41:10 51°24.461 2°57.252 -999 -999 -999 -999 -999
2008-02-13 09:41:15 51°24.469 2°57.225 -999 -999 -999 -999 -999
2008-02-13 09:41:20 51°24.479 2°57.199 -999 -999 -999 -999 -999
2008-02-13 09:41:25 51°24.487 2°57.173 -999 -999 -999 -999 -999
2008-02-13 09:41:30 51°24.497 2°57.147 -999 -999 -999 -999 -999
2008-02-13 09:41:35 51°24.506 2°57.121 -999 -999 -999 -999 -999
2008-02-13 09:41:40 51°24.515 2°57.095 -999 -999 -999 -999 -999
2008-02-13 09:41:45 51°24.524 2°57.068 -999 -999 -999 -999 -999
2008-02-13 09:41:50 51°24.533 2°57.042 -999 -999 -999 -999 -999
2008-02-13 09:41:55 51°24.542 2°57.015 -999 -999 -999 -999 -999
2008-02-13 09:42:00 51°24.551 2°56.989 -999 -999 -999 -999 -999
2008-02-13 09:42:05 51°24.56 2°56.962 -999 -999 -999 -999 -999
2008-02-13 09:42:10 51°24.568 2°56.935 -999 -999 -999 -999 -999
2008-02-13 09:42:15 51°24.577 2°56.909 -999 -999 -999 -999 -999
2008-02-13 09:42:20 51°24.586 2°56.882 -999 -999 -999 -999 -999
2008-02-13 09:42:25 51°24.594 2°56.855 -999 -999 -999 -999 -999
2008-02-13 09:42:30 51°24.603 2°56.828 -999 -999 -999 -999 -999
2008-02-13 09:42:35 51°24.612 2°56.802 -999 -999 -999 -999 -999
2008-02-13 09:42:40 51°24.621 2°56.775 -999 -999 -999 -999 -999
2008-02-13 09:42:45 51°24.63 2°56.748 -999 -999 -999 -999 -999